Location: Escondido Hill
(38.9119°N, 104.7815°W)
Time: 20:25:46
(UTC-07:00)

Envisat - Visible Passes

Search period start: 19 January 2019 00:00
Search period end: 29 January 2019 00:00
Orbit: 764 x 766 km, 98.2° (Epoch: 19 January)

Date Brightness Start Highest point End Pass type
(mag) Time Alt. Az. Time Alt. Az. Time Alt. Az.
19 Jan 3.1 18:19:46 10° SSE 18:24:38 50° ENE 18:29:32 10° N visible
19 Jan 5.6 20:00:37 10° SW 20:03:55 17° W 20:07:14 10° NW visible
20 Jan 5.9 06:30:50 10° NE 06:34:25 19° E 06:37:59 10° SE visible
20 Jan 4.0 17:44:14 10° ESE 17:48:09 23° ENE 17:52:06 10° NNE visible
20 Jan 4.3 19:22:12 10° SSW 19:26:55 39° W 19:31:40 10° NNW visible
21 Jan 2.9 18:45:03 10° SSE 18:50:06 90° E 18:55:13 10° NNW visible
22 Jan 3.4 18:08:48 10° SE 18:13:29 40° ENE 18:18:12 10° N visible
22 Jan 5.3 19:48:43 10° SW 19:52:37 22° W 19:56:32 10° NW visible
23 Jan 6.1 06:20:16 10° ENE 06:23:06 15° E 06:25:56 10° SE visible
23 Jan 4.3 17:33:38 10° ESE 17:37:04 19° ENE 17:40:31 10° NNE visible
23 Jan 3.8 19:10:46 10° S 19:15:41 50° W 19:20:37 10° NNW visible
24 Jan 2.9 18:33:53 10° SSE 18:38:55 71° ENE 18:43:59 10° N visible
24 Jan 6.0 20:16:30 10° WSW 20:18:25 12° W 20:20:21 10° WNW visible
25 Jan 3.7 17:57:55 10° SE 18:02:21 32° ENE 18:06:48 10° N visible
25 Jan 4.9 19:37:01 10° SSW 19:41:20 28° W 19:45:40 10° NW visible
26 Jan 6.4 06:10:11 10° ENE 06:11:46 11° E 06:13:21 10° ESE visible
26 Jan 3.4 18:59:25 10° S 19:04:27 65° W 19:09:30 10° NNW visible
27 Jan 3.0 18:22:49 10° SSE 18:27:45 55° ENE 18:32:42 10° N visible
27 Jan 5.8 20:04:05 10° SW 20:07:06 16° W 20:10:06 10° NW visible
28 Jan 5.9 06:33:46 10° NE 06:37:35 21° E 06:41:22 10° SE visible
28 Jan 3.9 17:47:09 10° ESE 17:51:14 25° ENE 17:55:21 10° NNE visible
28 Jan 4.5 19:25:27 10° SSW 19:30:04 36° W 19:34:43 10° NNW visible
